Погода в Травянском

Россия / Свердловская область     56°26′23″N   62°01′55″E
темп.,
°C
ветер,
м/с
пор.,
м/с
влажн.,
%
обл.,
%
осадки,
мм/ч
давл.,
гПа
погр.,
м
23 апреля, пт
пт2323:00+8ю41155100 0.0 1031265
02:00+7ююз3958100 0.0 1031238
05:00+6ю2563100 0.0 1032153
08:00+8ююз51161100 0.0 1032712
11:00+10ююз7955100 0.0 10311477
14:00+11ююз5758100 0.1 10311495
17:00+12юз475399 0.2 10301528
20:00+10ююз3464100 0.1 1030109
24 апреля, сб
сб2423:00+9вюв247197 0.1 1029111
02:00+8юв2574100 0.0 1027121
05:00+8ююв51085100 0.2 1026471
08:00+7юв5787100 1.1 10251008
11:00+6юв5789100 1.9 10241004
14:00+7юв6879100 0.4 1023918
17:00+7юв4971100 1.0 10211106
20:00+8вюв51054100 0.0 1019342
25 апреля, вс
вс2523:00+6вюв3660100 0.0 1018153
02:00+5юв5972100 0.0 1017755
05:00+4вюв4893100 0.3 1016558
08:00+5в5107785 0.0 1015579
11:00+10юв575397 0.0 10131260
14:00+9ююв566199 0.0 10121103
17:00+10ю565997 0.0 10111258
20:00+9ю497398 0.8 1009667
26 апреля, пн
пн2623:00+7з5107890 3.7 1010950
02:00+5зюз6118095 0.4 1012919
05:00+4зюз612754 0.4 1013586
08:00+6зюз7117129 0.0 1015859
11:00+9зюз8124589 0.1 10152181
14:00+10зюз9123698 0.0 10152851
17:00+11зюз8123687 0.0 10152712
20:00+9зюз511525 0.0 1016452
27 апреля, вт
вт2723:00+6юз512620 0.0 1017352
02:00+5юз412658 0.0 1016242
05:00+4юз3765100 0.0 1016136
08:00+6ююз3559100 0.0 1014210
11:00+8ююз5664100 0.0 1013825
14:00+11ю3351100 0.0 10101390
17:00+11ю3251100 0.0 10091326
20:00+7ю457895 0.0 1008318